Location: *
(46.1200°N, 11.2700°E)
Time: 20:50:27
(UTC+00:00)

Meteor 1-5 Rocket - Pass Details

Date: 02 March 2021
Orbit: 790 x 914 km, 81.2° (Epoch: 17 April)

Event Time Altitude Azimuth Distance (km) Brightness Sun altitude
Rises 18:41:53 0° 183° (S) 3,281 7.2 -17.9°
Reaches altitude 10° 18:44:14 10° 181° (S) 2,364 6.4 -18.3°
Maximum altitude 18:49:32 74° 98° (E) 849 4.0 -19.2°
Drops below altitude 10° 18:55:02 10° 14° (NNE) 2,446 6.6 -20.2°
Sets 18:57:29 0° 13° (NNE) 3,403 7.3 -20.6°
